Home   Weather   Monongahela   Past weeks
Flag for USA

Past Weather in Monongahela, Pennsylvania, USA — Yesterday and Last 2 Weeks

Now
83 °F

Sunny.


Feels Like: 85 °F
Forecast: 84 / 64 °F
Wind: 10 mph from West

Location: Allegheny County Airport

Current Time: Jun 26, 2019 at 6:43:18 pm

Latest Report: Jun 26, 2019 at 5:53 pm


Visibility: 10 mi

Pressure: 30.08 "Hg

Humidity: 57%

Dew Point: 66 °F

Location of MonongahelaLocation

Past Weather in Monongahela — Graph

°F

Monongahela Temperature Yesterday

Maximum temperature yesterday: 80 °F (at 4:53 pm)
Minimum temperature yesterday: 67 °F (at 3:53 am)
Average temperature yesterday: 72 °F

High & Low Weather Summary for the Past Weeks

 TemperatureHumidityPressure
High84 °F (Jun 26, 2:53 pm)100% (Jun 17, 3:53 am)30.17 "Hg (Jun 17, 3:53 am)
Low50 °F (Jun 12, 5:53 am)35% (Jun 11, 5:53 pm)29.54 "Hg (Jun 20, 5:53 pm)
Average68 °F77%29.90 "Hg
* Reported Jun 11 4:53 pm — Jun 26 4:53 pm, Monongahela. Weather by CustomWeather, © 2019

Note: Actual official high and low records may vary slightly from our data, if they occured in-between our weather recording intervals... More about our weather records

Advertising

Monongahela Weather History for the Previous 24 Hours

Scroll right to see more
 ConditionsComfort  
Time TempWeatherWind HumidityBarometerVisibility
4:53 pm
Wed, Jun 26
84 °FBroken clouds.12 mph57%30.08 "Hg10 mi
3:53 pm83 °FBroken clouds.10 mph57%30.08 "Hg10 mi
2:53 pm84 °FBroken clouds.15 mph59%30.09 "Hg10 mi
1:53 pm82 °FPartly sunny.10 mph58%30.09 "Hg10 mi
12:53 pm80 °FBroken clouds.10 mph60%30.10 "Hg10 mi
11:53 am81 °FSunny.15 mph56%30.10 "Hg10 mi
10:53 am79 °FSunny.15 mph60%30.09 "Hg10 mi
9:53 am76 °FSunny.9 mph67%30.10 "Hg10 mi
8:53 am72 °FSunny.5 mph73%30.09 "Hg10 mi
7:53 am68 °FSunny.6 mph78%30.09 "Hg10 mi
6:53 am65 °FSunny.8 mph85%30.09 "Hg10 mi
5:53 am65 °FSunny.6 mph81%30.07 "Hg10 mi
4:53 am67 °FPassing clouds.8 mph79%30.06 "Hg10 mi
3:53 am68 °FClear.9 mph76%30.05 "Hg10 mi
2:53 am69 °FClear.10 mph73%30.04 "Hg10 mi
1:53 am69 °FClear.9 mph73%30.03 "Hg10 mi
12:53 am70 °FClear.8 mph71%30.03 "Hg10 mi
11:53 pm
Tue, Jun 25
71 °FClear.9 mph68%30.03 "Hg10 mi
10:53 pm72 °FClear.7 mph64%30.01 "Hg10 mi
9:53 pm73 °FClear.7 mph62%30.00 "Hg10 mi
8:53 pm75 °FClear.8 mph58%29.98 "Hg10 mi
7:53 pm77 °FPassing clouds.8 mph52%29.96 "Hg10 mi
6:53 pm78 °FPassing clouds.12 mph50%29.96 "Hg10 mi
Weather by CustomWeather, © 2019

See weather overview